Location: Terre Du Lac
(37.9120°N, 90.6250°W)
Time: 14:13:22
(UTC-05:00)

Hubble Space Telescope - Visible Passes

Search period start: 03 September 2015 00:00
Search period end: 13 September 2015 00:00
Orbit: 541 x 545 km, 28.5° (Epoch: 02 September)

Date Brightness Start Highest point End Pass type
(mag) Time Alt. Az. Time Alt. Az. Time Alt. Az.
04 Sep 3.3 04:53:15 10° SSE 04:53:43 10° SSE 04:54:24 10° SSE visible
05 Sep 3.1 04:44:51 12° SSE 04:44:51 12° SSE 04:46:28 10° SE visible
06 Sep 3.1 04:36:26 14° SSE 04:36:26 14° SSE 04:37:56 10° SE visible
07 Sep 3.1 04:28:01 14° SE 04:28:01 14° SE 04:29:13 10° SE visible
07 Sep 2.4 06:04:00 10° SW 06:07:14 22° S 06:10:28 10° SE visible
08 Sep 3.3 04:19:37 13° SE 04:19:37 13° SE 04:20:23 10° SE visible
08 Sep 2.4 05:55:03 10° SW 05:58:12 22° S 06:01:24 10° SE visible
09 Sep 3.5 04:11:14 11° SE 04:11:14 11° SE 04:11:29 10° SE visible
09 Sep 2.4 05:46:40 13° SW 05:49:09 21° S 05:52:17 10° SE visible
10 Sep 2.5 05:38:19 15° SW 05:40:06 19° S 05:43:06 10° SE visible
11 Sep 2.5 05:30:02 16° SSW 05:31:03 18° S 05:33:51 10° SSE visible
12 Sep 2.6 05:21:48 16° SSW 05:21:59 16° SSW 05:24:29 10° SSE visible
